Location: Newark
(46.2167°N, 5.8664°E)
Time: 00:34:54
(UTC+00:00)

N. Korean satellite - Pass Details

Date: 22 October 2019
Orbit: 456 x 506 km, 97.2° (Epoch: 12 November)

Event Time Altitude Azimuth Distance (km) Brightness Sun altitude
Rises 05:29:27 0° 14° (NNE) 2,562 10.3 -6.5°
Reaches altitude 10° 05:31:31 10° 16° (NNE) 1,685 9.4 -6.1°
Maximum altitude 05:35:09 73° 101° (ESE) 522 6.9 -5.5°
Drops below altitude 10° 05:38:48 10° 187° (S) 1,696 9.4 -4.9°
Sets 05:40:53 0° 189° (S) 2,581 10.3 -4.5°
